Wetbulb
43.38 37.08 34.15 38.19 40.11 41.10 40.03 38.42 37.42 40.79 43.97 41.25 40.12 40.96 43.45 45.77 45.78 45.99 49.93 51.48 54.29 55.39 57.77 58.87 59.64 60.45 62.77 64.81 64.68 65.01 65.43 67.38 68.12 68.04 66.05 65.44 64.83 65.24 66.99 68.32 70.04 69.41 71.72 71.50
38.73 34.88 41.49 43.89 43.07 41.25 39.66 37.11 36.62 40.54 43.31 41.72 40.07 39.74 42.79 44.45 44.90 46.02 46.89 49.73 52.81 55.17 56.14 57.38 58.31 59.31 60.59 64.27 64.78 64.63 64.73 65.29 66.01 66.31 66.69 65.42 65.07 65.68 66.31 68.48 68.92 70.64 71.06 71.45
35.89 39.81 44.36 42.49 40.51 39.46 38.33 36.47 36.80 36.98 40.95 41.69 39.49 37.25 39.88 43.59 45.22 46.56 47.73 48.77 51.64 54.44 55.30 56.58 57.59 57.84 62.54 64.76 65.15 65.44 65.95 65.90 65.67 66.60 67.46 66.89 66.46 67.11 68.15 67.56 68.04 70.59 70.98 71.51
37.69 42.21 42.04 40.40 39.37 40.46 35.54 42.13 41.48 39.81 36.09 30.48 38.99 28.92 36.62 40.70 41.80 43.75 45.99 47.69 48.86 51.42 54.86 55.87 56.76 57.65 61.62 64.76 65.57 65.82 65.90 65.17 65.75 65.16 66.46 66.79 66.64 65.29 66.02 67.71 69.47 70.51 71.10 70.95
36.39 38.22 38.62 38.12 39.29 42.76 38.29 42.54 40.49 39.63 35.85 31.42 33.81 29.28 34.59 38.94 38.88 41.51 44.08 46.53 48.84 50.77 52.97 54.93 55.30 56.45 58.53 63.22 62.84 63.02 63.80 64.64 66.24 67.11 67.93 66.35 65.36 66.77 67.23 68.48 69.31 69.19 69.50 70.11
39.16 43.33 42.07 41.49 43.45 43.00 43.08 39.47 38.59 37.18 32.21 26.39 32.32 31.58 32.25 35.62 38.15 41.36 44.12 45.95 47.93 50.38 51.56 54.64 55.08 55.61 56.42 61.06 62.70 62.76 62.71 64.31 65.43 66.97 67.59 66.06 64.73 66.47 67.50 67.74 69.07 69.10 68.92 68.80
37.86 38.67 42.88 44.24 38.62 40.72 38.19 32.70 25.19 23.62 23.11 24.40 35.09 32.37 33.79 39.04 42.53 43.86 44.05 45.97 47.59 48.48 49.36 52.17 55.23 55.33 55.68 57.08 57.24 60.88 60.77 61.99 64.96 66.26 67.25 67.04 66.35 67.04 67.12 68.22 68.97 68.54 67.70 66.98
29.21 27.15 37.96 43.74 39.14 34.66 35.38 34.30 28.32 21.05 21.19 25.77 35.22 28.02 33.66 42.07 44.39 45.60 46.61 47.10 47.95 48.74 49.94 51.92 53.98 55.09 54.80 56.41 56.93 57.82 58.88 59.35 63.59 65.23 66.81 68.02 68.86 68.79 68.69 69.38 69.16 68.87 68.29 67.89
30.32 31.68 41.23 41.74 41.86 40.47 34.63 30.44 36.39 29.26 31.03 24.25 28.67 34.08 39.55 43.00 44.35 45.07 44.91 46.11 46.19 47.68 50.84 53.32 52.72 52.88 53.62 54.44 55.45 55.78 56.48 61.39 64.24 65.71 68.44 67.29 68.35 68.94 69.72 69.18 69.38 68.81 67.92 68.22
35.69 28.68 38.29 40.28 41.97 41.04 37.54 39.07 28.18 28.50 20.92 20.50 27.04 29.58 30.99 38.28 40.04 41.96 42.18 42.67 45.30 47.31 50.40 52.67 53.38 55.21 60.46 61.37 61.80 61.93 58.90 63.17 64.88 67.12 69.01 68.72 68.68 69.99 70.29 70.46 69.28 68.66 68.21 68.73
36.67 32.25 33.58 37.45 34.64 34.39 33.47 31.94 33.62 34.11 31.72 24.76 21.89 26.86 40.54 39.05 40.31 40.34 41.56 43.86 45.18 47.15 49.59 52.00 52.79 59.22 60.89 61.08 61.23 61.32 60.78 61.69 64.90 68.08 68.33 68.70 69.60 70.43 70.35 69.83 69.04 69.31 69.27 69.06
38.04 32.68 27.51 32.15 38.40 40.83 39.43 35.42 33.49 29.06 27.38 29.94 28.11 28.92 42.11 41.36 41.73 43.04 42.50 44.51 47.10 49.39 48.62 52.15 59.24 60.46 60.80 60.79 60.85 61.45 63.96 66.96 68.18 69.05 69.16 69.63 69.38 69.49 68.87 67.54 67.25 67.94 67.83 68.00
37.85 30.88 26.03 27.76 32.18 36.86 34.73 35.71 35.72 32.97 31.01 27.73 25.88 28.71 42.56 42.38 42.01 43.35 43.58 45.40 46.93 48.80 49.14 50.14 53.70 59.53 59.61 60.53 61.69 63.51 67.03 67.90 68.75 69.16 68.61 68.88 69.13 67.93 66.74 66.11 65.65 65.95 65.39 64.76
41.53 33.42 29.77 25.44 29.39 33.81 32.16 35.00 36.53 32.96 27.88 29.05 30.55 32.97 38.05 39.99 40.91 42.64 42.98 44.71 45.83 46.27 47.91 49.34 51.68 57.90 60.18 63.09 63.27 66.46 66.97 68.49 68.70 68.55 68.14 67.83 67.89 66.93 65.76 65.09 64.27 64.91 64.51 63.76
37.66 31.49 34.21 34.97 36.56 36.39 35.33 35.40 36.38 34.26 33.96 29.76 34.09 33.77 37.66 39.55 41.10 43.23 44.76 45.47 45.63 46.22 47.54 49.87 50.77 53.90 60.77 62.51 63.81 66.71 67.74 68.23 67.88 68.00 67.51 67.05 66.90 65.90 65.32 64.60 64.53 64.15 63.44 63.11
39.21 33.40 34.98 32.28 36.14 36.39 34.43 37.04 37.43 37.31 37.29 36.42 35.81 35.32 41.54 43.64 44.88 43.95 44.71 45.95 46.39 47.81 50.32 49.50 56.93 57.93 60.44 62.59 64.60 65.06 66.29 66.88 67.40 67.08 66.62 66.64 65.27 64.57 63.88 63.47 63.60 63.09 63.07 64.05
36.55 35.48 30.70 27.20 34.54 34.01 29.12 35.52 36.76 36.91 38.22 36.41 31.33 36.23 40.88 40.64 42.54 43.83 45.27 47.23 49.92 51.09 51.86 50.80 57.93 58.73 60.37 62.01 62.74 64.28 65.58 66.62 66.79 66.38 65.82 64.70 64.25 64.46 63.77 63.96 63.96 63.80 62.98 63.46
37.19 35.68 33.87 29.02 31.33 22.63 34.95 40.27 39.75 37.14 37.86 38.53 38.82 39.30 40.49 41.14 43.06 45.12 46.40 48.74 49.47 49.61 51.02 52.70 55.84 57.57 60.15 61.72 62.66 64.65 65.71 65.84 65.51 64.61 64.36 64.11 64.46 64.09 63.54 62.25 61.35 62.63 62.10 63.17
41.54 36.52 32.20 25.63 24.19 31.65 35.43 38.09 36.57 35.11 34.45 39.24 38.87 40.77 42.23 43.48 44.23 43.55 49.85 49.90 48.92 49.39 50.99 52.76 54.64 57.80 58.89 60.64 62.33 64.01 64.36 64.27 63.76 63.01 62.82 63.78 64.46 63.46 62.77 61.11 60.93 62.37 61.53 60.57
37.82 35.54 32.25 30.80 26.07 18.82 31.03 39.18 42.03 38.93 28.04 39.68 40.66 40.75 41.87 41.90 36.54 40.33 46.29 48.01 49.01 50.23 51.37 52.00 53.80 55.69 60.49 61.65 63.93 62.74 62.63 62.90 62.41 62.40 62.99 63.16 63.79 63.49 62.61 63.35 62.31 61.91 61.73 61.22
34.84 33.53 30.09 29.40 27.08 30.68 39.38 41.65 41.34 27.18 27.21 40.71 41.15 40.46 41.66 39.91 41.10 43.87 46.55 47.51 48.92 50.08 51.22 52.50 53.87 55.08 60.04 61.93 64.08 62.37 62.21 61.62 62.66 62.84 62.53 62.92 63.02 63.93 64.17 63.65 62.46 62.24 62.02 61.46
30.21 31.88 28.72 31.93 25.42 24.18 42.46 41.03 36.15 37.54 41.20 41.79 42.23 42.28 41.76 42.06 43.42 44.29 45.84 46.69 48.42 48.83 50.53 52.49 52.63 54.74 60.61 62.78 62.72 63.13 62.46 61.61 63.22 61.99 63.67 63.73 63.71 64.59 64.14 62.98 62.42 62.35 61.59 60.05
29.64 36.69 34.38 35.06 30.71 42.40 45.02 42.58 43.70 43.91 42.68 42.50 43.07 43.41 45.16 42.23 42.63 44.49 44.59 46.42 47.58 48.62 49.96 52.10 52.48 54.04 60.11 61.47 62.86 62.87 63.92 61.80 62.39 62.72 62.12 62.07 62.91 63.77 63.42 62.78 62.01 61.93 60.84 59.68
39.43 41.40 35.50 36.97 41.52 43.11 44.17 45.33 45.83 44.93 43.64 44.18 43.81 43.41 43.27 42.70 44.67 44.75 45.12 45.95 47.18 48.88 49.85 51.44 52.61 56.46 59.82 61.70 63.28 64.58 64.29 62.95 62.92 61.51 61.37 61.86 62.41 61.50 62.29 62.93 62.11 61.01 60.32 59.58
37.90 40.27 39.44 38.03 41.65 42.65 43.79 45.12 43.98 44.03 44.66 44.62 45.21 45.14 45.31 45.17 45.05 45.78 45.53 46.72 47.96 48.49 50.22 51.26 51.68 58.32 59.98 60.92 62.40 65.29 62.06 63.27 61.86 61.55 61.53 61.41 60.91 58.64 53.50 50.71 52.53 59.67 56.37 58.47
40.57 40.28 36.92 37.52 42.90 41.54 43.19 44.75 45.01 43.94 43.92 44.17 44.01 43.31 45.28 46.01 46.03 46.71 46.67 47.93 48.54 48.85 49.86 50.70 54.49 57.24 59.30 60.82 62.91 65.47 62.51 62.79 61.99 61.13 60.98 61.09 59.70 59.02 57.87 55.98 52.82 41.67 41.35 43.32
MSLP
1007.43 1008.01 1008.37 1008.00 1007.70 1007.57 1007.49 1007.00 1006.36 1005.51 1005.23 1004.99 1004.45 1003.39 1001.69 1001.77 1001.21 1000.91 999.99 999.28 999.25 998.95 998.68 998.41 998.60 998.88 998.74 998.84 999.16 999.48 1000.10 1000.89 1001.56 1002.27 1002.99 1003.22 1003.24 1003.45 1003.23 1003.52 1003.60 1003.84 1004.29 1004.98
1007.95 1007.64 1007.57 1007.25 1007.02 1007.11 1007.26 1007.06 1006.40 1005.80 1005.57 1005.19 1004.65 1003.66 1002.57 1002.15 1001.58 1001.06 1000.20 999.32 998.29 998.10 998.16 998.07 998.11 998.32 998.73 998.61 998.49 998.75 999.16 999.84 1000.58 1001.33 1001.98 1002.25 1002.67 1002.79 1002.61 1002.79 1002.96 1003.19 1003.68 1004.37
1008.26 1007.74 1007.05 1006.97 1006.98 1007.03 1007.04 1007.11 1006.66 1006.26 1006.03 1005.38 1005.36 1004.45 1002.85 1001.48 1001.32 1000.68 999.80 999.10 998.33 997.37 997.11 997.39 997.51 997.81 998.08 997.95 998.01 998.32 998.66 999.25 999.89 1000.42 1001.23 1001.83 1002.24 1002.30 1002.63 1002.70 1002.77 1003.05 1003.21 1003.99
1008.15 1007.47 1007.18 1007.11 1007.26 1007.22 1007.00 1007.14 1006.70 1006.42 1006.26 1006.07 1005.90 1004.09 1004.16 1002.88 1001.29 1000.93 999.96 999.03 997.99 997.46 996.99 996.48 996.76 997.04 997.51 997.10 997.09 997.59 998.19 998.72 999.23 999.86 1000.65 1001.20 1001.63 1002.16 1002.21 1002.23 1002.44 1002.84 1003.01 1003.68
1008.19 1007.55 1007.21 1007.32 1007.54 1007.80 1007.74 1007.90 1007.43 1007.13 1006.66 1006.39 1006.14 1005.85 1003.00 1003.69 1002.07 1001.01 999.85 999.19 998.12 997.03 996.61 996.43 996.14 996.10 996.49 997.09 997.22 997.27 997.65 998.23 998.85 999.45 999.98 1000.40 1001.10 1001.39 1001.77 1002.00 1002.33 1002.74 1003.05 1003.54
1007.60 1007.21 1007.41 1007.88 1008.03 1008.19 1008.26 1008.13 1007.65 1007.41 1007.35 1006.89 1006.51 1006.40 1003.99 1003.30 1002.17 1000.98 999.80 998.95 997.89 996.91 996.07 995.47 995.29 995.06 995.51 996.01 996.53 996.93 997.33 997.79 998.18 998.62 998.98 999.52 1000.29 1000.99 1001.69 1001.86 1002.28 1002.67 1003.05 1003.44
1007.85 1007.70 1007.96 1007.85 1008.25 1008.23 1008.62 1009.05 1009.53 1009.12 1008.68 1007.62 1006.72 1005.95 1003.97 1002.66 1002.16 1001.46 1000.69 999.35 998.23 996.87 995.67 995.31 994.50 994.68 994.84 995.16 995.94 996.36 996.61 997.17 997.43 997.75 998.21 998.77 999.39 1000.32 1001.00 1001.34 1001.84 1002.43 1002.96 1003.38
1008.50 1008.38 1008.27 1008.24 1008.39 1008.40 1008.58 1009.48 1010.68 1009.88 1009.18 1008.10 1006.74 1005.56 1003.51 1002.74 1001.91 1001.57 1000.69 999.93 998.76 997.34 995.98 994.90 993.45 993.59 993.92 994.19 994.56 995.17 995.78 996.26 996.68 997.17 997.51 998.01 998.83 999.74 1000.38 1000.79 1001.22 1001.80 1002.44 1003.01
1009.34 1009.09 1008.84 1008.35 1008.11 1008.49 1008.31 1008.77 1009.06 1009.63 1009.26 1008.58 1007.14 1005.32 1003.63 1003.25 1003.05 1003.10 1003.03 1001.65 1000.61 998.80 996.21 993.29 992.23 992.65 993.05 993.48 993.99 994.50 994.91 995.30 995.80 996.27 996.92 997.46 998.21 999.14 999.81 1000.36 1000.70 1001.32 1001.99 1002.70
1010.22 1009.42 1009.44 1008.76 1008.65 1008.16 1008.32 1008.62 1009.31 1010.24 1010.40 1009.43 1007.61 1006.02 1004.97 1004.77 1004.63 1004.22 1003.66 1002.73 1001.02 999.08 996.75 992.86 992.51 992.54 992.60 992.96 993.41 993.63 994.35 994.81 995.19 995.81 996.42 997.14 997.96 998.67 999.09 999.74 1000.47 1001.02 1001.89 1002.40
1010.60 1010.92 1010.11 1009.90 1009.24 1009.22 1009.60 1010.18 1010.95 1011.77 1011.77 1010.29 1008.73 1006.86 1005.80 1005.85 1005.71 1005.28 1004.24 1003.23 1002.04 1000.10 997.68 993.65 992.71 992.73 992.42 992.68 993.08 993.63 994.20 994.61 995.16 995.67 996.35 997.15 997.83 998.30 998.73 999.45 1000.11 1000.64 1001.57 1002.22
1011.28 1011.38 1010.96 1010.21 1009.37 1009.48 1010.00 1010.73 1010.87 1011.26 1010.94 1010.24 1009.13 1006.82 1006.18 1005.56 1005.21 1004.57 1004.22 1003.21 1001.84 1000.11 998.39 995.41 993.23 992.88 992.76 992.89 993.04 993.42 993.90 994.25 994.79 995.51 996.33 997.00 997.49 998.12 998.80 999.60 1000.04 1000.81 1001.48 1002.13
1011.83 1011.99 1011.82 1010.53 1009.98 1009.29 1009.25 1009.23 1009.60 1009.98 1009.97 1009.57 1008.75 1006.71 1004.81 1004.92 1004.60 1004.23 1004.50 1003.25 1002.40 1000.60 998.78 995.35 993.91 993.07 992.78 992.67 992.70 992.93 993.28 993.92 994.59 995.42 996.07 996.85 997.63 998.35 999.04 999.76 1000.53 1001.09 1001.54 1002.33
1011.76 1012.30 1012.56 1011.91 1010.58 1009.93 1008.92 1008.30 1008.33 1008.82 1009.01 1008.15 1007.32 1006.12 1006.34 1005.81 1005.37 1005.04 1004.68 1004.66 1002.51 999.96 997.70 996.33 995.40 993.44 993.07 992.83 992.01 992.32 993.04 993.68 994.48 995.33 996.52 997.28 997.82 998.59 999.42 1000.19 1000.81 1001.19 1001.55 1002.39
1011.75 1012.25 1012.21 1011.40 1010.21 1009.03 1008.13 1007.83 1007.31 1007.31 1007.18 1007.35 1006.91 1007.03 1006.14 1005.62 1005.06 1005.22 1004.54 1004.26 1002.92 1001.45 999.13 997.44 994.79 993.45 993.14 992.69 992.32 991.85 992.63 993.41 994.69 995.64 996.63 997.48 998.24 999.01 999.79 1000.30 1000.70 1001.13 1001.80 1002.31
1011.86 1012.31 1012.15 1011.15 1009.58 1008.25 1007.52 1007.00 1006.55 1006.35 1006.18 1006.24 1006.45 1005.77 1005.29 1005.26 1005.02 1004.43 1003.75 1002.73 1001.78 1000.05 997.43 995.49 994.21 993.62 993.61 993.53 993.03 992.83 992.93 993.64 994.75 995.78 997.01 997.85 998.63 999.38 999.93 1000.33 1000.92 1001.65 1002.20 1002.55
1011.62 1012.09 1012.15 1011.02 1009.57 1008.27 1007.32 1006.94 1006.75 1006.52 1006.54 1006.56 1006.03 1005.58 1005.02 1004.99 1004.59 1003.77 1003.43 1002.27 1000.91 999.24 997.55 995.39 994.29 993.93 994.23 994.59 994.17 993.35 993.26 993.18 994.59 995.85 997.15 998.09 998.84 999.60 1000.06 1000.55 1001.26 1001.87 1002.36 1003.02
1010.77 1011.87 1012.56 1011.71 1010.24 1008.56 1007.31 1007.16 1007.07 1006.91 1006.97 1006.97 1006.45 1005.86 1004.95 1005.02 1004.34 1003.34 1002.27 1001.81 1000.19 999.20 997.66 996.01 994.78 994.92 994.32 994.28 994.35 993.45 993.06 993.74 994.78 996.05 997.13 998.08 998.85 999.62 1000.19 1000.77 1001.54 1002.19 1002.71 1003.38
1010.75 1012.02 1012.45 1012.31 1011.00 1008.63 1006.71 1007.60 1007.87 1007.85 1007.67 1007.21 1006.87 1006.25 1005.41 1004.34 1003.87 1002.79 1002.22 1001.71 1000.81 999.01 997.72 996.41 995.68 995.65 995.73 995.62 995.12 993.64 993.24 993.71 995.00 996.05 997.21 997.87 998.74 999.72 1000.45 1001.20 1001.93 1002.41 1003.12 1003.76
1011.06 1011.93 1012.34 1012.05 1011.39 1009.41 1007.47 1007.57 1007.89 1008.11 1007.67 1007.31 1006.93 1006.67 1006.36 1005.73 1004.10 1002.81 1002.10 1001.34 1000.42 999.20 997.87 996.76 996.07 994.86 994.76 995.56 994.73 994.14 993.93 994.37 994.98 995.71 996.65 997.63 998.58 999.65 1000.48 1001.20 1001.93 1002.62 1003.34 1003.92
1011.03 1011.67 1011.72 1011.46 1010.89 1008.77 1007.42 1007.45 1007.69 1007.98 1007.06 1006.45 1006.56 1006.49 1006.26 1005.88 1005.27 1003.95 1002.84 1001.74 1001.12 999.56 997.95 996.75 996.49 995.58 995.20 994.69 992.93 995.07 993.99 994.55 994.70 995.33 996.40 997.54 998.59 999.60 1000.44 1001.33 1001.99 1002.75 1003.47 1004.03
1009.25 1009.87 1010.29 1010.02 1009.44 1008.21 1007.21 1007.44 1007.53 1005.66 1005.05 1005.14 1005.82 1005.90 1005.73 1005.01 1004.60 1004.04 1002.74 1001.55 1000.39 999.31 998.31 997.07 996.77 995.73 995.19 994.81 992.23 994.12 993.81 994.10 994.34 995.38 996.78 997.89 998.92 999.82 1000.70 1001.38 1002.32 1002.97 1003.59 1004.27
1008.39 1008.42 1008.88 1008.97 1007.52 1006.42 1006.33 1006.52 1005.41 1004.67 1004.70 1004.34 1003.72 1004.29 1004.44 1004.18 1003.86 1003.13 1002.43 1001.52 1000.29 999.39 998.39 997.29 996.70 996.35 995.29 994.99 994.61 993.66 993.36 993.49 994.66 996.09 997.30 998.40 999.28 1000.15 1000.91 1001.71 1002.61 1003.36 1003.88 1004.41
1008.08 1007.42 1007.49 1007.32 1005.93 1006.13 1005.85 1005.12 1004.99 1004.58 1004.17 1004.04 1003.81 1003.54 1002.90 1002.18 1001.97 1002.22 1002.08 1001.21 1000.03 998.90 998.13 997.65 997.56 996.58 995.54 995.24 993.86 992.87 993.34 993.85 995.22 996.67 997.76 998.67 999.51 1000.55 1001.30 1002.12 1002.94 1003.61 1004.14 1004.59
1008.17 1007.50 1006.80 1006.35 1005.60 1005.24 1004.98 1005.34 1004.75 1004.42 1004.26 1004.06 1003.75 1003.50 1003.10 1002.18 1001.26 1000.76 1000.40 1000.03 999.05 998.86 998.04 998.11 998.29 997.04 996.51 995.62 994.21 993.05 993.59 994.30 995.66 996.86 997.82 998.90 999.98 1001.02 1002.22 1003.15 1003.92 1004.04 1004.18 1004.25
1006.75 1006.63 1006.62 1005.88 1005.53 1004.90 1004.37 1003.95 1004.20 1004.38 1004.38 1004.13 1003.57 1002.89 1002.39 1001.86 1001.31 1000.45 999.45 999.04 998.68 998.19 998.18 997.82 997.40 996.67 995.88 995.73 994.78 993.53 993.89 994.55 995.87 997.15 998.14 999.09 1000.08 1001.25 1002.16 1003.07 1004.38 1004.77 1004.73 1004.30
Wind_Speed
6 3 5 12 10 8 8 13 14 15 13 15 13 15 21 14 15 16 21 17 16 19 20 18 17 10 9 9 11 11 11 10 6 3 3 2 4 3 3 5 7 8 9 12
7 6 8 9 9 7 8 14 16 14 10 14 12 20 20 18 17 18 20 19 18 19 19 20 17 17 14 12 15 13 14 11 7 5 4 4 3 4 3 5 7 7 10 12
6 10 12 13 12 13 8 8 12 15 12 15 10 16 24 25 18 17 20 19 13 18 19 18 17 17 10 14 14 12 12 11 8 9 4 2 1 2 1 3 4 5 10 12
6 9 12 9 13 14 12 12 17 16 9 10 6 17 11 18 25 21 20 19 17 9 17 19 18 15 10 13 14 15 14 12 9 9 6 8 7 6 4 5 3 6 9 8
10 12 7 7 10 10 13 18 20 20 13 5 7 8 16 10 20 23 20 20 22 15 11 18 15 11 9 7 8 10 10 8 8 10 12 9 6 4 4 3 8 6 6 8
12 12 4 3 6 9 14 11 18 12 3 10 12 11 18 16 17 21 23 22 24 22 11 14 14 11 9 10 12 11 12 12 14 12 12 11 10 7 5 4 7 6 4 5
8 9 3 4 2 6 6 7 5 6 3 9 11 12 15 13 14 19 20 23 20 23 25 15 18 15 9 11 11 13 14 13 12 13 12 12 12 9 9 7 8 9 5 3
3 6 10 3 4 6 4 4 5 6 6 12 9 7 13 15 15 17 21 21 19 21 24 22 16 16 11 10 10 10 11 10 10 12 13 11 9 7 6 8 9 8 7 6
6 5 13 15 15 14 7 7 11 7 11 3 6 11 12 15 14 21 21 23 26 26 26 10 9 10 9 9 9 10 10 12 13 13 10 11 10 8 8 9 9 9 7 6
4 15 6 13 14 10 5 8 7 5 6 7 6 13 7 14 18 22 23 26 29 22 33 1 2 2 5 6 4 3 7 11 12 12 11 9 8 7 9 11 11 10 8 8
6 2 8 10 4 9 8 5 3 4 3 3 6 3 2 9 7 13 18 23 25 25 29 6 5 3 4 2 3 4 8 10 9 9 8 8 7 8 11 8 9 10 10 10
5 3 6 16 16 12 7 8 3 2 3 5 5 8 7 8 6 10 16 23 22 21 20 17 3 3 2 6 7 6 8 10 11 11 8 9 7 10 10 9 10 10 12 11
2 4 6 7 2 0 1 5 7 5 4 5 8 7 7 7 10 10 10 18 21 26 26 22 10 3 6 5 7 10 12 12 11 9 8 9 11 10 10 12 10 9 10 8
1 4 7 8 13 12 17 19 15 7 4 7 12 19 15 7 8 11 17 18 21 25 27 23 18 6 3 6 8 12 12 12 10 9 9 11 12 11 9 9 8 8 8 8
4 6 9 14 19 20 20 18 18 17 14 8 7 13 9 2 2 3 6 13 17 24 28 28 10 7 6 4 7 15 14 13 12 13 12 11 11 10 9 8 8 8 8 6
5 5 6 13 19 17 19 17 15 14 10 6 11 10 11 4 2 7 9 15 21 25 26 8 7 6 8 8 3 4 13 14 14 14 12 11 10 10 9 8 8 8 7 8
7 4 1 7 12 18 9 4 6 7 9 10 11 6 11 12 11 10 12 15 17 16 22 10 6 7 8 6 4 3 13 16 17 16 14 12 10 9 8 7 8 8 7 7
5 5 3 7 10 4 3 3 3 6 6 10 7 8 12 11 14 15 15 5 16 18 20 20 6 7 9 12 7 10 15 17 17 16 14 12 10 10 8 7 8 6 6 7
7 4 3 3 2 15 12 5 4 6 6 4 4 8 13 14 13 12 4 9 12 15 16 17 13 6 1 12 20 2 14 19 17 13 12 12 11 12 10 8 8 6 7 6
11 8 2 2 4 5 4 2 5 2 5 8 7 7 6 12 11 9 18 16 19 18 15 16 19 16 6 4 7 6 12 15 14 13 13 10 13 13 10 9 8 6 6 6
3 2 5 5 6 8 2 4 6 2 7 8 5 5 7 7 8 15 19 16 15 16 17 17 15 13 12 9 13 9 10 12 13 13 11 12 10 11 12 8 6 6 6 6
2 4 5 4 3 8 6 2 4 8 6 6 7 8 9 8 11 13 16 16 17 14 18 16 13 13 9 11 5 6 7 8 14 11 15 15 12 11 9 11 5 7 7 7
4 5 4 6 7 4 1 9 14 12 15 6 6 6 8 8 12 13 12 16 16 15 14 15 12 12 10 10 11 6 3 10 15 17 15 13 12 10 8 9 8 6 6 6
5 8 5 10 2 1 9 11 7 3 5 8 8 9 6 12 12 11 15 14 15 14 13 12 10 13 11 11 13 10 4 14 18 15 14 13 12 8 6 6 6 6 5 6
11 10 8 12 17 5 4 4 2 6 7 10 10 9 11 14 15 15 14 14 15 13 12 8 10 5 7 13 15 6 6 18 17 16 14 12 9 10 8 7 4 4 3 4
4 4 4 3 16 6 8 6 3 5 6 8 11 14 13 13 14 15 15 13 11 10 10 9 8 6 8 10 13 6 11 19 17 14 11 9 9 7 8 8 7 14 9 6
Wind_Direction
320 1 254 241 241 254 290 299 295 303 325 326 301 291 294 305 298 304 261 236 223 227 239 255 260 267 228 199 165 161 145 159 146 136 162 185 210 210 217 211 197 194 172 183
320 231 249 312 322 322 317 306 301 303 297 288 307 299 294 297 290 292 291 279 230 217 226 237 251 254 242 200 185 172 171 165 164 152 183 163 173 222 198 197 198 186 160 166
323 294 321 320 316 313 280 270 290 285 288 281 302 287 296 294 286 285 285 280 274 226 208 223 238 240 241 199 176 169 170 174 170 179 146 176 239 305 194 218 187 179 158 158
291 291 299 342 327 321 305 315 311 299 282 273 224 277 261 291 294 293 294 295 276 263 245 225 235 241 209 193 177 175 178 181 186 176 170 181 206 205 208 184 168 156 157 158
259 283 281 273 298 355 310 333 304 300 284 314 282 281 286 299 290 292 288 286 289 263 227 234 221 215 198 213 188 181 176 178 184 183 191 189 192 195 186 164 151 150 152 156
246 252 53 68 6 319 315 337 308 287 271 265 276 252 273 271 274 271 277 281 285 289 255 224 229 210 206 181 184 189 185 198 203 191 189 179 184 182 186 162 159 167 153 154
350 335 118 93 356 284 341 8 337 330 320 267 280 280 270 273 293 295 297 295 301 288 280 265 224 225 206 190 187 197 192 198 195 193 191 185 182 175 190 172 164 158 159 149
272 331 318 40 223 235 274 196 205 251 266 279 295 257 275 278 283 285 280 296 281 278 280 274 219 205 205 205 200 186 183 198 197 196 194 180 164 180 186 171 161 157 165 161
348 311 325 323 323 322 279 263 261 287 284 288 250 266 275 347 10 350 345 341 335 335 290 239 200 172 181 186 202 209 205 199 193 193 176 169 165 164 175 164 158 155 150 159
314 306 289 318 328 305 243 286 327 5 316 290 291 287 290 9 354 348 344 339 325 321 314 344 6 170 133 137 148 174 183 179 176 163 159 155 161 162 160 157 158 160 153 151
9 26 304 314 288 326 6 357 43 180 243 245 274 283 94 50 16 335 330 328 323 325 316 307 241 140 126 161 215 172 169 153 150 142 139 144 161 160 161 148 148 155 150 146
20 264 292 298 288 137 163 234 242 218 213 262 231 265 122 123 67 21 323 327 322 308 319 298 99 100 261 242 241 193 169 140 144 143 146 156 138 137 134 122 121 133 136 143
22 310 317 307 122 219 203 240 239 236 240 237 282 270 238 68 24 21 4 323 322 315 301 334 317 337 293 268 240 172 149 145 141 142 137 135 134 125 120 123 124 126 131 137
228 214 216 255 268 273 280 285 281 179 227 275 270 307 12 40 1 36 12 315 318 303 313 309 293 311 314 320 171 141 146 143 142 136 130 136 129 121 116 126 132 127 123 131
176 245 257 275 283 286 286 291 298 299 240 250 318 279 353 131 277 91 311 288 284 297 296 283 286 354 284 264 236 149 142 138 135 132 123 121 123 120 129 133 122 117 126 142
145 266 306 293 285 266 268 270 258 281 332 352 315 314 3 40 278 274 262 276 282 282 296 311 356 12 345 335 95 223 137 129 127 125 123 127 125 122 123 121 121 121 128 111
205 199 16 262 310 304 290 60 4 320 341 335 297 330 340 334 318 315 318 311 312 332 339 330 351 347 12 320 280 157 142 128 135 131 133 133 129 130 130 129 128 124 121 110
175 122 141 276 304 286 125 71 282 322 328 340 325 331 321 326 311 300 294 313 315 329 329 326 332 7 32 348 305 189 131 130 126 132 138 144 140 132 123 121 117 119 124 136
135 162 201 255 274 268 279 86 1 341 312 272 203 319 318 310 306 293 290 330 310 314 317 319 327 321 43 40 306 235 131 131 133 136 148 154 144 136 135 132 134 125 113 116
81 85 130 19 277 261 255 56 22 110 261 182 193 274 345 325 309 306 322 328 322 309 311 315 319 314 314 169 317 284 139 132 143 146 150 144 140 142 147 144 130 128 133 139
168 175 227 235 242 275 13 48 43 86 238 202 192 253 273 269 273 300 302 304 297 294 302 309 318 325 334 319 160 223 146 149 149 138 140 134 123 126 127 125 125 128 133 128
237 188 201 222 235 268 176 109 202 236 298 256 188 214 244 262 280 284 287 290 289 303 303 307 308 314 324 318 250 186 123 154 134 114 110 114 118 123 123 126 121 121 125 127
311 161 213 196 232 238 219 229 237 257 278 280 281 222 246 252 278 281 280 288 295 289 289 298 303 316 308 333 300 164 164 128 110 118 119 119 117 119 122 117 121 124 126 127
297 312 290 310 254 249 235 257 278 337 329 315 304 302 315 291 290 283 274 272 277 279 286 297 324 311 330 320 283 207 165 128 121 118 117 122 122 104 110 120 127 132 133 134
269 298 316 273 285 292 270 343 328 330 318 314 314 303 296 288 285 276 268 267 263 277 281 297 301 304 310 306 297 198 157 125 123 124 124 118 111 107 89 67 35 121 96 161
228 202 253 288 291 243 266 253 79 317 316 311 300 298 289 282 277 274 273 268 264 273 287 290 276 303 291 273 258 222 132 128 128 129 128 129 119 117 119 117 88 45 30 80